Orbital Elements at Epoch 2459200.5 (2020-Dec-17.0) TDB
Reference: JPL 19 (heliocentric ecliptic J2000)
Element | Value | Uncertainty (1-sigma) | Units |
e | .2811008796501411 | 4.7094e-08 | |
a | 2.346171062548654 | 1.5256e-08 | au |
q | 1.686660313056521 | 1.0629e-07 | au |
i | 12.6195530807443 | 5.7165e-06 | deg |
node | 102.5922095994051 | 2.3016e-05 | deg |
peri | 254.7496148075356 | 2.6035e-05 | deg |
M | 88.97141549003193 | 1.7732e-05 | deg |
tp | 2458876.096196836954 (2020-Jan-27.59619684) | 6.219e-05 | TDB |
period | 1312.616737583328 3.59 | 1.2803e-05 3.505e-08 | d yr |
n | .2742613206828367 | 2.6751e-09 | deg/d |
Q | 3.005681812040787 | 1.9545e-08 | au |
|
| | Orbit Determination Parameters
Additional Information
|